Kenai, AK

10:00 PM AKST on December 06, 2019 (GMT -0900)
Kenai Municipal

Weather History for PAEN - October, 2019

Change the Weather History Date:

Tuesday, October 8, 2019

  Actual Average Record
Temperature  
Mean Temperature 42 °F -  
Max Temperature 50 °F 45 °F 56 °F (1993)
Min Temperature 37 °F 32 °F 13 °F (1958)
Degree Days  
Heating Degree Days 22    
Moisture  
Dew Point 36 °F    
Average Humidity 75    
Maximum Humidity 93    
Minimum Humidity 51    
Precipitation  
Precipitation 0.20 in - - ()
Sea Level Pressure  
Sea Level Pressure 30.21 in    
Wind  
Wind Speed 5 mph (SSE)    
Max Wind Speed 16 mph    
Max Gust Speed 28 mph    
Visibility 10 miles    
Events Rain    
Averages and records for this station are not official NWS values.
T = Trace of Precipitation, MM = Missing Value Source: NWS Daily Summary

Daily Weather History Graph

Daily Weather History Graph

Search for Another Location

Airport or City:

Astronomy

Oct. 08, 2019 Rise Set
Actual Time 8:28 AM AKDT 7:15 PM AKDT
Civil Twilight 7:45 AM AKDT 7:57 PM AKDT
Nautical Twilight 6:56 AM AKDT 8:46 PM AKDT
Astronomical Twilight 6:05 AM AKDT 9:37 PM AKDT
Moon 6:53 PM AKDT (10/8) 1:41 AM AKDT (10/8)
Length of Visible Light 12h 12m
Length of Day
10h 47m
Waxing Gibbous, 79% of the Moon is Illuminated
Oct 8
Waxing Gibbous
Oct 13
Full
Oct 21
Last Quarter
Oct 27
New
Nov 4
First Quarter

Hourly Weather History & Observations

Time (AKDT) Temp. Windchill Dew Point Humidity Pressure Visibility Wind Dir Wind Speed Gust Speed Precip Events Conditions
12:53 AM 37.0 °F - 27.0 °F 67% 30.30 in 10.0 mi Calm Calm - N/A   Overcast
1:53 AM 37.9 °F - 28.9 °F 70% 30.30 in 10.0 mi Calm Calm - N/A   Scattered Clouds
2:53 AM 39.9 °F 35.1 °F 30.0 °F 68% 30.29 in 10.0 mi SSE 6.9 mph - N/A   Overcast
3:53 AM 41.0 °F 39.0 °F 30.9 °F 67% 30.28 in 10.0 mi SSE 3.5 mph - N/A   Overcast
4:53 AM 39.0 °F 35.7 °F 30.9 °F 73% 30.27 in 10.0 mi SSE 4.6 mph - N/A   Clear
5:53 AM 41.0 °F 35.8 °F 30.9 °F 67% 30.25 in 10.0 mi SE 8.1 mph - N/A   Mostly Cloudy
6:53 AM 39.9 °F - 30.0 °F 68% 30.24 in 10.0 mi Calm Calm - N/A   Mostly Cloudy
7:53 AM 42.1 °F 36.6 °F 32.0 °F 67% 30.24 in 10.0 mi SE 9.2 mph - N/A   Mostly Cloudy
8:53 AM 42.1 °F 37.1 °F 28.9 °F 60% 30.23 in 10.0 mi SE 8.1 mph - N/A   Mostly Cloudy
9:53 AM 43.0 °F 37.7 °F 27.0 °F 53% 30.24 in 10.0 mi SE 9.2 mph - N/A   Scattered Clouds
10:53 AM 44.1 °F 39.5 °F 27.0 °F 51% 30.23 in 10.0 mi SE 8.1 mph - N/A   Overcast
11:53 AM 48.9 °F - 34.0 °F 56% 30.22 in 10.0 mi SSE 12.7 mph - N/A   Overcast
12:41 PM 48.9 °F - 36.0 °F 61% 30.21 in 10.0 mi North - - 0.00 in Rain Light Rain
12:53 PM 48.0 °F - 37.0 °F 66% 30.23 in 10.0 mi South 12.7 mph - 0.00 in Rain Light Rain
1:19 PM 48.0 °F - 41.0 °F 77% 30.22 in 10.0 mi SSW 16.1 mph 27.6 mph 0.00 in   Overcast
1:53 PM 48.9 °F - 39.9 °F 71% 30.22 in 10.0 mi SW 12.7 mph - 0.00 in   Overcast
2:53 PM 48.0 °F - 39.9 °F 74% 30.22 in 10.0 mi WSW 6.9 mph - N/A   Overcast
3:53 PM 48.0 °F - 39.9 °F 74% 30.21 in 10.0 mi West 6.9 mph - 0.00 in Rain Light Rain
4:53 PM 46.9 °F - 43.0 °F 86% 30.20 in 9.0 mi Calm Calm - 0.01 in Rain Light Rain
5:53 PM 46.0 °F - 43.0 °F 89% 30.19 in 7.0 mi Calm Calm - 0.03 in Rain Light Rain
6:53 PM 46.0 °F - 43.0 °F 89% 30.18 in 7.0 mi Calm Calm - 0.04 in Rain Light Rain
7:53 PM 45.0 °F 41.8 °F 42.1 °F 90% 30.17 in 10.0 mi SE 5.8 mph - 0.04 in Rain Light Rain
8:53 PM 44.1 °F 40.1 °F 42.1 °F 93% 30.16 in 10.0 mi SE 6.9 mph - 0.02 in Rain Light Rain
9:06 PM 44.1 °F 40.1 °F 42.1 °F 93% 30.15 in 6.0 mi ESE 6.9 mph - 0.02 in Rain Rain
9:22 PM 44.1 °F 40.1 °F 42.1 °F 93% 30.14 in 10.0 mi ESE 6.9 mph - 0.03 in Rain Light Rain
9:53 PM 44.1 °F 40.1 °F 41.0 °F 89% 30.15 in 10.0 mi SE 6.9 mph - 0.05 in Rain Light Rain
10:46 PM 44.1 °F - 41.0 °F 89% 30.13 in 10.0 mi Calm Calm - 0.01 in   Overcast
10:53 PM 44.1 °F 42.5 °F 41.0 °F 89% 30.13 in 10.0 mi ESE 3.5 mph - 0.01 in   Overcast